This is the latest recevied weather packets stored in our database for station/object W3EJE-13. If no packets are shown the sender has not sent any weather packets the latest 10 day(s).
| Time | Temp. | Humidity | Pressure | Rain* | Wind** | Luminosity | Snow |
|---|---|---|---|---|---|---|---|
| 1778020040 | 21.11° C | 48% | 1011.5 hPa | 0 mm | - | 100 W/m² | - |
| 1778019736 | 21.11° C | 48% | 1011.6 hPa | 0 mm | - | 113 W/m² | - |
| 1778019433 | 21.67° C | 47% | 1011.4 hPa | 0 mm | - | 112 W/m² | - |
| 1778019129 | 21.67° C | 49% | 1011.3 hPa | 0 mm | - | 128 W/m² | - |
| 1778018827 | 21.67° C | 49% | 1011.5 hPa | 0 mm | - | 144 W/m² | - |
| 1778018525 | 21.67° C | 48% | 1011.5 hPa | 0 mm | - | 144 W/m² | - |
| 1778018222 | 21.67° C | 47% | 1011.4 hPa | 0 mm | - | 133 W/m² | - |
| 1778017920 | 21.11° C | 48% | 1011.5 hPa | 0 mm | - | 147 W/m² | - |
| 1778017617 | 21.67° C | 50% | 1011.4 hPa | 0 mm | - | 144 W/m² | - |
| 1778017314 | 21.11° C | 52% | 1011.3 hPa | 0 mm | - | 143 W/m² | - |
| 1778017012 | 21.11° C | 49% | 1011.4 hPa | 0 mm | - | 135 W/m² | - |
| 1778016709 | 21.67° C | 52% | 1011.4 hPa | 0 mm | - | 131 W/m² | - |
| 1778016405 | 21.11° C | 50% | 1011.4 hPa | 0 mm | - | 138 W/m² | - |
| 1778016102 | 21.67° C | 50% | 1011.3 hPa | 0 mm | - | 135 W/m² | - |
| 1778015799 | 21.67° C | 50% | 1011.3 hPa | 0 mm | - | 137 W/m² | - |
| 1778015496 | 21.67° C | 47% | 1011.3 hPa | 0 mm | - | 142 W/m² | - |
| 1778015193 | 21.67° C | 48% | 1011.4 hPa | 0 mm | - | 147 W/m² | - |
| 1778014890 | 21.67° C | 47% | 1011.6 hPa | 0 mm | - | 154 W/m² | - |
| 1778014587 | 22.22° C | 47% | 1011.4 hPa | 0 mm | - | 165 W/m² | - |
| 1778014286 | 22.22° C | 47% | 1011.3 hPa | 0 mm | - | 192 W/m² | - |
| 1778013982 | 22.22° C | 47% | 1011.4 hPa | 0 mm | - | 223 W/m² | - |
| 1778013679 | 22.22° C | 48% | 1011.2 hPa | 0 mm | - | 200 W/m² | - |
| 1778013376 | 22.78° C | 46% | 1011.3 hPa | 0 mm | - | 193 W/m² | - |
| 1778013074 | 22.78° C | 47% | 1011 hPa | 0 mm | - | 211 W/m² | - |
| 1778012769 | 22.78° C | 46% | 1011.2 hPa | 0 mm | - | 288 W/m² | - |
* Rain latest hour (hover to see other rain measurements)
** Current wind speed in m/s (hover to see current wind gust speed)